FENGYUN 1C DEB, 31361

Orbit data source: Space-Track

FENGYUN 1C DEB, 31361 is space debris in SSO originally from a launch on Mon, 10 May 1999 UTC launched from the Taiyaun Space Center, China (TSC). Fengyun 1C debris stems from the Chinese weather satellite Fengyun-1C, which was intentionally destroyed by a Chinese anti-satellite missile in 2007. This event dramatically increased the amount of space debris, with thousands of trackable fragments posing hazards to satellites and human spaceflight. The Fengyun 1C debris cloud has become a focal point in discussions about space sustainability and the need for international regulations to prevent the creation of new debris.

Loading next visibility...
Identifier
31361, 1999-025BRR
Orbit
SSO
Country
Flag of CNCN / PRC
Related business
Manufacturer
Unknown
Mission
Spacecraft
Bus & Motor
Unknown
Mass
Unknown
Launch date (UTC)
1999-05-10 (27 years ago)
Launch vehicle
Unknown
Launch site
Taiyaun Space Center, China (TSC)
Object type
Payload
Rocket body
Debris
Shape & HBR
Unknown shape, 0.1 m
Radar Cross Section
Small (<0.1 m²)

Expand to show TLE details & history
Last TLE update: 2 days ago

TLE from 2 days ago
0 FENGYUN 1C DEB
1 31361U 99025BRR 26137.16861458  .00000103  00000-0  70520-4 0  9999
2 31361  98.5718 111.9077 0044725 343.7965  16.1778 14.17836707987669
Epoch: 2026-05-17T04:02Z
TLE epoch observation values (Epoch: 2026-05-17T04:02:48.299Z)
Latitude
-0.00004°
Longitude
176.33136°
Altitude
804.626 km
Speed
7.467 km/s
True Right ascension
07h 27m 37s
True Declination
0° 00' 00"
Sunlit
Object was in daylight at epoch
Visualization orbit readout
Latitude
Unknown
Longitude
Unknown
Altitude
Unknown
Speed
Unknown
Apparent Right ascension
Unknown
Apparent Declination
Unknown
Sunlit
N/A
Visualization observer readout
Local Sidereal Time
09:45:31
Azimuth
Unknown
Elevation
Unknown
Doppler factor
Unknown
Orbital elements
Apogee altitude
862.071 km
Perigee altitude
797.595 km
Semi-major axis
7,207.97 km
Eccentricity
0.00447
Inclination
98.5718°
RAAN
111.9077°
Arg. of periapsis
343.7965°
True anomaly
16.32137°
Mean anomaly
16.1778°
Eccentric anomaly
16.24951°
Mean motion
3.54669 °/min
Orbital period
101.5 mins
BSTAR
0.00007052
Loading maneuver chart data...
Computing Atmospheric mass density...

Documentation

Showing up to 5 results
|